Tiempo atmosférico en la estación meteorológica de Antequera, Málaga (400 m.)



Fecha
DESCASC
Temp. máxima en grados centígrados (hora)
DESCASC
Temp. mínima en grados centígrados (hora)
DESCASC
Temp. media en grados centígrados
DESCASC
Racha de viento máxima en m/sg (hora)
DESCASC
Velocidad máxima media en intervalos de 10 minutos(hora)
DESCASC
Precipitaciones diarias en mm
DESCASC
Precipitaciones de 00:00 a 06:00 en mm
DESCASC
Precipitaciones de 06:00 a 12:00 en mm
DESCASC
Precipitaciones de 12:00 a 18:00 en mm
DESCASC
Precipitaciones de 18:00 a 24:00 en mm
DESCASC
11-12-2019 -- (--) -- (--) -- 8.06 (17:50) 3.89 (17:50) 0 0 0 0 0
10-12-2019 -- (--) -- (--) -- 4.72 (16:00) 2.5 (19:00) 0 0 0 0 0
09-12-2019 -- (--) -- (--) -- 4.17 (17:00) 1.94 (08:10) 0 0 0 0 0
08-12-2019 -- (--) -- (--) -- 5.28 (16:40) 2.78 (16:40) 0 0 0 0 0
07-12-2019 -- (--) -- (--) -- 3.06 (16:30) 1.67 (01:00) 0 0 0 0 0
06-12-2019 -- (--) -- (--) -- 2.78 (09:20) 1.11 (04:00) 0.1 0.1 0 0 0
05-12-2019 -- (--) -- (--) -- -- (--) -- (--) -- -- -- 0.1 0.6
04-12-2019 -- (--) -- (--) -- -- (--) -- (--) -- 0.1 0 -- --
03-12-2019 14.1 (16:00) 6 (00:00) 10.1 5 (16:20) 2.5 (18:40) 0 0 0 0 0
02-12-2019 13.1 (13:10) 7.5 (00:00) 10.3 5.83 (08:50) 2.78 (13:10) 2.6 0.7 1.4 0.5 0
01-12-2019 15 (14:20) 7.8 (00:00) 11.4 6.94 (15:10) 2.78 (13:40) 0.5 0.3 0 0.2 0
30-11-2019 19.9 (14:40) 4.4 (00:00) 12.1 8.33 (17:10) 4.44 (17:00) 0.1 0 0.1 0 0
29-11-2019 17.7 (15:30) 4.3 (00:00) 11 5 (13:50) 1.67 (19:50) 0 0 0 0 0
28-11-2019 16.1 (15:50) 9 (00:00) 12.6 4.17 (14:00) 2.22 (16:00) 0 0 0 0 0
27-11-2019 16.5 (14:20) 11.8 (00:00) 14.2 6.39 (15:00) 2.78 (12:40) 0.2 0 0.2 0 0
26-11-2019 17.7 (16:20) 11.2 (00:00) 14.5 5 (17:40) 2.5 (21:40) 0.1 0.1 0 0 0
25-11-2019 15.9 (14:10) 6.7 (00:00) 11.3 5.83 (16:20) 2.5 (16:10) 0.6 0 0.1 0 0.5
24-11-2019 13.1 (15:00) 2.7 (00:00) 7.9 7.5 (15:20) 3.89 (16:10) 0 0 0 0 0
23-11-2019 13.3 (14:40) 6.9 (00:00) 10.1 14.72 (04:00) 6.11 (04:20) 1 0.1 0.9 0 0
22-11-2019 16.4 (16:40) 11.1 (00:00) 13.8 14.44 (20:00) 6.11 (20:00) 17.4 2.3 8.4 2.4 4.3
21-11-2019 14.5 (15:30) 7.9 (00:00) 11.2 5.28 (16:10) 2.5 (14:10) 2.1 1.1 0.9 0.1 0
20-11-2019 11.6 (14:30) 1.1 (00:00) 6.4 8.06 (17:20) 4.17 (17:30) 1.2 0 0.5 0.7 0
19-11-2019 13.2 (15:00) 0.9 (00:00) 7 4.17 (14:50) 1.94 (16:40) 0 0 0 0 0
18-11-2019 12.9 (00:10) 4.7 (00:00) 8.8 10.56 (04:30) 4.72 (10:10) 1.4 1.4 0 0 0
17-11-2019 13.3 (16:50) -0.9 (-00:0) 6.2 9.17 (23:50) 3.89 (23:30) 0.4 0 0 0.1 0.3
16-11-2019 11.2 (15:50) -1.1 (-00:0) 5 6.11 (16:50) 3.33 (16:50) 0 0 0 0 0
15-11-2019 9.9 (14:20) 3 (00:00) 6.4 9.17 (13:20) 4.44 (13:30) 0 0 0 0 0
14-11-2019 12.3 (00:00) 6.9 (00:00) 9.6 14.17 (14:20) 6.39 (14:20) 1.6 0 0 1.6 0
13-11-2019 16.2 (16:20) 7.8 (00:00) 12 12.22 (14:30) 5 (14:20) 0.5 0 0.5 0 0
12-11-2019 14.1 (16:30) 8.5 (00:00) 11.3 6.67 (12:40) 3.61 (14:50) 0 0 0 0 0

Gráficas

Temp. máximas Temp. mínimas Temp. medias Precipitaciones Rachas de viento máximas Velocidades máximas media en intervalos de 10 minutos

Datos horarios

Fecha y hora oficial Temperatura (ºC) Velocidad del viento (km/h) Dirección del viento Racha (km/h) Dirección de racha Precipitación (mm) Presión (hPa) Tendencia (hPa) Humedad (%)
2019-12-11 23:00:00 -- 0 Calma 10 Noroeste 0 -- -- --
2019-12-11 22:00:00 -- 3 Noroeste 17 Noroeste 0 -- -- --
2019-12-11 21:00:00 -- 4 Noroeste 14 Noroeste 0 -- -- --
2019-12-11 20:00:00 -- 0 Calma 9 Nordeste 0 -- -- --
2019-12-11 19:00:00 -- 0 Calma 19 Noroeste 0 -- -- --
2019-12-11 18:00:00 -- 12 Noroeste 29 Noroeste 0 -- -- --
2019-12-11 17:00:00 -- 13 Noroeste 28 Noroeste 0 -- -- --
2019-12-11 16:00:00 -- 13 Noroeste 27 Noroeste 0 -- -- --
2019-12-11 15:00:00 -- 11 Noroeste 27 Noroeste 0 -- -- --
2019-12-11 14:00:00 -- 9 Noroeste 26 Oeste 0 -- -- --
2019-12-11 13:00:00 -- 6 Noroeste 22 Noroeste 0 -- -- --
2019-12-11 12:00:00 -- 5 Nordeste 12 Este 0 -- -- --
2019-12-11 11:00:00 -- 0 Calma 9 Este 0 -- -- --
2019-12-11 10:00:00 -- 0 Calma -- -- 0 -- -- --
2019-12-11 09:00:00 -- 0 Calma -- -- 0 -- -- --
2019-12-11 08:00:00 -- 0 Calma -- -- 0 -- -- --
2019-12-11 07:00:00 -- 0 Calma -- -- 0 -- -- --
2019-12-11 06:00:00 -- 0 Calma -- -- 0 -- -- --
2019-12-11 05:00:00 -- 0 Calma -- -- 0 -- -- --
2019-12-11 04:00:00 -- 0 Calma -- -- 0 -- -- --
2019-12-11 03:00:00 -- 0 Calma 6 Oeste 0 -- -- --
2019-12-11 02:00:00 -- 0 Calma -- -- 0 -- -- --
2019-12-11 01:00:00 -- 0 Calma 0 Calma 0 -- -- --
2019-12-11 00:00:00 -- 0 Calma 5 Nordeste 0 -- -- --
2019-12-10 23:00:00 -- 0 Calma 2 Este 0 -- -- --
2019-12-10 22:00:00 -- 0 Calma -- -- 0 -- -- --
2019-12-10 21:00:00 -- 0 Calma 4 Oeste 0 -- -- --
2019-12-10 20:00:00 -- 0 Calma 13 Noroeste 0 -- -- --
2019-12-10 19:00:00 -- 9 Noroeste 12 Noroeste 0 -- -- --
2019-12-10 18:00:00 -- 3 Noroeste 10 Noroeste 0 -- -- --
2019-12-10 17:00:00 -- 3 Nordeste 17 Nordeste 0 -- -- --
2019-12-10 16:00:00 -- 5 Nordeste 17 Nordeste 0 -- -- --
2019-12-10 15:00:00 -- 3 Noroeste 11 Noroeste 0 -- -- --
2019-12-10 14:00:00 -- 0 Calma 4 Oeste 0 -- -- --
2019-12-10 13:00:00 -- 0 Calma 7 Sudeste 0 -- -- --
2019-12-10 12:00:00 -- 0 Calma 6 Este 0 -- -- --
2019-12-10 11:00:00 -- 0 Calma 5 Este 0 -- -- --
2019-12-10 10:00:00 -- 0 Calma 5 Oeste 0.1 -- -- --
2019-12-10 09:00:00 -- 0 Calma 6 Noroeste 0 -- -- --
2019-12-10 08:00:00 -- 0 Calma 4 Nordeste 0 -- -- --
2019-12-10 07:00:00 -- 2 Oeste 5 Noroeste 0 -- -- --
2019-12-10 06:00:00 -- 2 Oeste 9 Oeste 0.1 -- -- --
2019-12-10 05:00:00 -- 0 Calma 5 Nordeste 0 -- -- --
2019-12-10 04:00:00 -- 0 Calma 2 Nordeste 0 -- -- --
2019-12-10 03:00:00 -- 0 Calma 4 Noroeste 0 -- -- --
2019-12-10 02:00:00 -- 0 Calma 3 Oeste 0 -- -- --
2019-12-10 01:00:00 -- 0 Calma 3 Oeste 0 -- -- --
2019-12-10 00:00:00 -- 0 Calma 5 Este 0 -- -- --
2019-12-09 23:00:00 -- 0 Calma 8 Noroeste 0 -- -- --
2019-12-09 22:00:00 -- 0 Calma 6 Noroeste 0 -- -- --
2019-12-09 21:00:00 -- 2 Noroeste 6 Noroeste 0 -- -- --
2019-12-09 20:00:00 -- 0 Calma 8 Noroeste 0 -- -- --
2019-12-09 19:00:00 -- 4 Noroeste 14 Noroeste 0 -- -- --
2019-12-09 18:00:00 -- 4 Noroeste 11 Noroeste 0 -- -- --
2019-12-09 17:00:00 -- 6 Noroeste 15 Noroeste 0 -- -- --
2019-12-09 16:00:00 -- 2 Norte 13 Noroeste 0 -- -- --
2019-12-09 15:00:00 -- 3 Nordeste 14 Nordeste 0 -- -- --
2019-12-09 14:00:00 -- 3 Noroeste 12 Noroeste 0 -- -- --
2019-12-09 13:00:00 -- 5 Noroeste 13 Noroeste 0 -- -- --
2019-12-09 12:00:00 -- 2 Oeste 6 Oeste 0 -- -- --
2019-12-09 11:00:00 -- 0 Calma 6 Nordeste 0 -- -- --
2019-12-09 10:00:00 -- 2 Nordeste 12 Nordeste 0 -- -- --
2019-12-09 09:00:00 -- 0 Calma 14 Noroeste 0 -- -- --
2019-12-09 08:00:00 -- 6 Noroeste 12 Noroeste 0 -- -- --
2019-12-09 07:00:00 -- 0 Calma 8 Noroeste 0 -- -- --
2019-12-09 06:00:00 -- 2 Noroeste 10 Noroeste 0 -- -- --
2019-12-09 05:00:00 -- 0 Calma 7 Nordeste 0 -- -- --
2019-12-09 04:00:00 -- 3 Nordeste 8 Norte 0 -- -- --
2019-12-09 03:00:00 -- 4 Nordeste 7 Nordeste 0 -- -- --
2019-12-09 02:00:00 -- 0 Calma 7 Nordeste 0 -- -- --
2019-12-09 01:00:00 -- 0 Calma 4 Nordeste 0 -- -- --
2019-12-09 00:00:00 -- 0 Calma -- -- 0 -- -- --
2019-12-08 23:00:00 -- 0 Calma 0 Calma 0 -- -- --
2019-12-08 22:00:00 -- 0 Calma 4 Noroeste 0 -- -- --
2019-12-08 21:00:00 -- 0 Calma 5 Noroeste 0 -- -- --
2019-12-08 20:00:00 -- 0 Calma 8 Noroeste 0 -- -- --
2019-12-08 19:00:00 -- 0 Calma 9 Nordeste 0 -- -- --
2019-12-08 18:00:00 -- 0 Calma 14 Noroeste 0 -- -- --
2019-12-08 17:00:00 -- 7 Noroeste 19 Noroeste 0 -- -- --
2019-12-08 16:00:00 -- 9 Noroeste 18 Noroeste 0 -- -- --
2019-12-08 15:00:00 -- 3 Noroeste 14 Nordeste 0 -- -- --
2019-12-08 14:00:00 -- 4 Noroeste 15 Noroeste 0 -- -- --
2019-12-08 13:00:00 -- 0 Calma 3 Este 0 -- -- --
2019-12-08 12:00:00 -- 0 Calma 3 Sudeste 0 -- -- --
2019-12-08 11:00:00 -- 0 Calma 2 Sudeste 0 -- -- --
2019-12-08 10:00:00 -- 0 Calma -- -- 0 -- -- --
2019-12-08 09:00:00 -- 0 Calma -- -- 0 -- -- --
2019-12-08 08:00:00 -- 0 Calma 4 Noroeste 0 -- -- --
2019-12-08 07:00:00 -- 0 Calma -- -- 0 -- -- --
2019-12-08 06:00:00 -- 0 Calma -- -- 0 -- -- --
2019-12-08 05:00:00 -- 0 Calma -- -- 0 -- -- --
2019-12-08 04:00:00 -- 0 Calma -- -- 0 -- -- --
2019-12-08 03:00:00 -- 0 Calma 0 Calma 0 -- -- --
2019-12-08 02:00:00 -- 0 Calma -- -- 0 -- -- --
2019-12-08 01:00:00 -- 0 Calma 5 Norte 0 -- -- --
2019-12-08 00:00:00 -- 0 Calma 4 Oeste 0 -- -- --
2019-12-07 23:00:00 -- 0 Calma 2 Oeste 0 -- -- --
2019-12-07 22:00:00 -- 0 Calma -- -- 0 -- -- --
2019-12-07 21:00:00 -- 0 Calma 6 Oeste 0 -- -- --
2019-12-07 20:00:00 -- 0 Calma 6 Noroeste 0 -- -- --
2019-12-07 19:00:00 -- 0 Calma 9 Noroeste 0 -- -- --
2019-12-07 18:00:00 -- 0 Calma 8 Noroeste 0 -- -- --
2019-12-07 17:00:00 -- 0 Calma 11 Noroeste 0 -- -- --
2019-12-07 16:00:00 -- 3 Noroeste 9 Noroeste 0 -- -- --
2019-12-07 15:00:00 -- 0 Calma 7 Este 0 -- -- --
2019-12-07 14:00:00 -- 0 Calma 9 Oeste 0 -- -- --
2019-12-07 13:00:00 -- 0 Calma 5 Norte 0 -- -- --
2019-12-07 12:00:00 -- 0 Calma 7 Este 0 -- -- --
2019-12-07 11:00:00 -- 0 Calma 8 Este 0 -- -- --
2019-12-07 10:00:00 -- 0 Calma 5 Noroeste 0 -- -- --
2019-12-07 09:00:00 -- 0 Calma 5 Noroeste 0 -- -- --
2019-12-07 08:00:00 -- 0 Calma 4 Nordeste 0 -- -- --
2019-12-07 07:00:00 -- 0 Calma 5 Nordeste 0 -- -- --
2019-12-07 06:00:00 -- 0 Calma 4 Este 0 -- -- --
2019-12-07 05:00:00 -- 0 Calma 4 Nordeste 0 -- -- --
2019-12-07 04:00:00 -- 0 Calma 5 Nordeste 0 -- -- --
2019-12-07 03:00:00 -- 4 Nordeste 9 Norte 0 -- -- --
2019-12-07 02:00:00 -- 0 Calma 8 Norte 0 -- -- --
2019-12-07 01:00:00 -- 6 Nordeste 11 Nordeste 0 -- -- --
2019-12-07 00:00:00 -- 0 Calma 0 Calma 0 -- -- --
2019-12-06 23:00:00 -- 0 Calma 0 Calma 0 -- -- --
2019-12-06 22:00:00 -- 0 Calma 3 Sudoeste 0 -- -- --
2019-12-06 21:00:00 -- 0 Calma 4 Sudoeste 0 -- -- --
2019-12-06 20:00:00 -- 0 Calma 2 Oeste 0 -- -- --
2019-12-06 19:00:00 -- 0 Calma 7 Sudoeste 0 -- -- --
2019-12-06 18:00:00 -- 0 Calma 3 Oeste 0 -- -- --
2019-12-06 17:00:00 -- 0 Calma 8 Oeste 0 -- -- --
2019-12-06 16:00:00 -- 0 Calma 6 Oeste 0 -- -- --
2019-12-06 15:00:00 -- 0 Calma 8 Noroeste 0 -- -- --
2019-12-06 14:00:00 -- 0 Calma 6 Oeste 0 -- -- --
2019-12-06 13:00:00 -- 0 Calma 5 Este 0 -- -- --
2019-12-06 12:00:00 -- 0 Calma 4 Sur 0 -- -- --
2019-12-06 11:00:00 -- 0 Calma 6 Este 0 -- -- --
2019-12-06 10:00:00 -- 0 Calma 10 Noroeste 0 -- -- --
2019-12-06 09:00:00 -- 0 Calma 6 Oeste 0 -- -- --
2019-12-06 08:00:00 -- 0 Calma 7 Sudoeste 0 -- -- --
2019-12-06 07:00:00 -- 0 Calma 8 Noroeste 0 -- -- --
2019-12-06 06:00:00 -- 4 Oeste 7 Oeste 0 -- -- --
2019-12-06 05:00:00 -- 0 Calma 6 Oeste 0 -- -- --
2019-12-06 04:00:00 -- 4 Noroeste 6 Noroeste 0 -- -- --
2019-12-06 03:00:00 -- 3 Noroeste 6 Noroeste 0.1 -- -- --
2019-12-06 02:00:00 -- 0 Calma 8 Oeste 0 -- -- --
2019-12-06 01:00:00 -- 0 Calma -- -- 0 -- -- --
2019-12-06 00:00:00 -- 0 Calma 4 Oeste 0 -- -- --
2019-12-05 23:00:00 -- 0 Calma 4 Noroeste 0 -- -- --
2019-12-05 22:00:00 -- 0 Calma 3 Noroeste 0.2 -- -- --
2019-12-05 21:00:00 -- 0 Calma 4 Oeste 0.3 -- -- --
2019-12-05 20:00:00 -- 0 Calma 8 Sur 0.1 -- -- --
2019-12-05 19:00:00 -- 0 Calma 11 Sur 0 -- -- --
2019-12-05 18:00:00 -- 3 Sudeste 11 Sur 0 -- -- --
2019-12-05 17:00:00 -- 4 Sur 19 Sudeste 0 -- -- --
2019-12-05 16:00:00 -- 8 Sur 26 Sudeste 0 -- -- --
2019-12-05 15:00:00 -- 9 Sur 25 Sur 0.1 -- -- --
2019-12-05 14:00:00 -- 4 Sudeste 14 Sur 0 -- -- --
2019-12-05 13:00:00 -- 0 Calma 5 Sudeste 0 -- -- --
2019-12-05 12:00:00 -- 0 Calma 9 Sudeste 0 -- -- --
2019-12-05 11:00:00 6 2 Este 8 Este 0 966 1.7 94
2019-12-05 10:00:00 2.3 0 Calma 6 Sudeste 0 965.2 -- 95
2019-12-05 09:00:00 1.6 0 Calma 5 Sur 0 964.6 -- 95
2019-12-05 08:00:00 1.9 0 Calma -- -- -- 964.3 -- 95
2019-12-05 07:00:00 -- -- -- -- -- -- -- -- --
2019-12-05 06:00:00 -- -- -- -- -- -- -- -- --
2019-12-05 05:00:00 -- -- -- -- -- -- -- -- --
2019-12-05 04:00:00 -- -- -- -- -- -- -- -- --
2019-12-05 03:00:00 -- -- -- -- -- -- -- -- --
2019-12-05 02:00:00 -- -- -- -- -- -- -- -- --
2019-12-05 01:00:00 -- -- -- -- -- -- -- -- --
2019-12-05 00:00:00 -- -- -- -- -- -- -- -- --
2019-12-04 23:00:00 -- -- -- -- -- -- -- -- --
2019-12-04 22:00:00 -- -- -- -- -- -- -- -- --
2019-12-04 21:00:00 -- -- -- -- -- -- -- -- --
2019-12-04 20:00:00 -- -- -- -- -- -- -- -- --
2019-12-04 19:00:00 -- -- -- -- -- -- -- -- --
2019-12-04 18:00:00 -- -- -- -- -- -- -- -- --
2019-12-04 17:00:00 -- -- -- -- -- -- -- -- --
2019-12-04 16:00:00 13.1 7 Noroeste 15 Noroeste 0 959.5 -0.9 59
2019-12-04 15:00:00 12.8 4 Nordeste 21 Nordeste 0 959.7 -1.4 64
2019-12-04 14:00:00 12.8 9 Noroeste 22 Oeste 0 959.8 -2.2 64
2019-12-04 13:00:00 12.2 8 Oeste 23 Oeste 0 960.4 -1.4 68
2019-12-04 12:00:00 11.7 8 Oeste 18 Noroeste 0 961.1 0 78
2019-12-04 11:00:00 9.6 0 Calma 5 Nordeste 0 962 1 88
2019-12-04 10:00:00 8.2 0 Calma 4 Sudeste 0 961.8 1.4 92
2019-12-04 09:00:00 8.2 0 Calma 10 Nordeste 0 961.1 0.4 91
2019-12-04 08:00:00 7.4 8 Nordeste 13 Nordeste 0 961 0 93
2019-12-04 07:00:00 8.2 3 Nordeste 7 Nordeste 0 960.4 -0.9 92
2019-12-04 06:00:00 8.2 0 Calma -- -- 0 960.7 -1 92
2019-12-04 05:00:00 8.3 0 Calma 4 Nordeste 0 961 -1.5 92
2019-12-04 04:00:00 8.2 0 Calma 4 Nordeste 0.1 961.3 -1.3 90
2019-12-04 03:00:00 9.3 0 Calma 4 Oeste 0 961.7 -1 87
2019-12-04 02:00:00 9.8 0 Calma 5 Oeste 0 962.5 -0.2 83
2019-12-04 01:00:00 9.8 0 Calma 9 Noroeste 0 962.6 0.2 81
2019-12-04 00:00:00 9.9 0 Calma 3 Oeste 0 962.7 0.5 81
2019-12-03 23:00:00 10.2 0 Calma 8 Noroeste 0 962.7 0.6 77
2019-12-03 22:00:00 10.5 0 Calma 8 Noroeste 0 962.4 0.9 75
2019-12-03 21:00:00 11.4 4 Noroeste 10 Noroeste 0 962.2 0.9 69
2019-12-03 20:00:00 11.4 6 Noroeste 13 Norte 0 962.1 1.1 74
2019-12-03 19:00:00 11.7 8 Noroeste 13 Noroeste 0 961.5 0.7 72
2019-12-03 18:00:00 12.5 7 Noroeste 14 Noroeste 0 961.3 0.8 69
2019-12-03 17:00:00 13.6 4 Noroeste 18 Noroeste 0 961 0.1 64
2019-12-03 16:00:00 13.8 3 Norte 15 Nordeste 0 960.8 -0.6 64
2019-12-03 15:00:00 13.4 0 Calma 9 Nordeste 0 960.5 -1.7 62
2019-12-03 14:00:00 12.4 0 Calma 5 Sudeste 0 960.9 -1.7 72
2019-12-03 13:00:00 11.7 0 Calma 8 Sudoeste 0 961.4 -1.2 76
2019-12-03 12:00:00 10.2 2 Oeste 8 Oeste 0 962.2 0.2 85
2019-12-03 11:00:00 8 0 Calma 3 Oeste 0 962.6 0.7 94
2019-12-03 10:00:00 7.1 0 Calma 5 Este 0 962.6 1 94
2019-12-03 09:00:00 6.7 0 Calma 10 Noroeste 0 962 0.6 93
2019-12-03 08:00:00 6.5 0 Calma 9 Noroeste 0 961.9 -0.2 93
2019-12-03 07:00:00 7.5 0 Calma 6 Noroeste 0 961.6 -1.2 92
2019-12-03 06:00:00 7.9 3 Noroeste 8 Noroeste 0 961.4 -1.6 93
2019-12-03 05:00:00 7.9 2 Este 6 Este 0 962.1 -1 93
2019-12-03 04:00:00 7.7 0 Calma 5 Este 0 962.8 -0.9 93
2019-12-03 03:00:00 8 0 Calma 6 Oeste 0 963 -0.5 92
2019-12-03 02:00:00 8.9 0 Calma 5 Nordeste 0 963.1 -0.5 89
2019-12-03 01:00:00 8.3 0 Calma 8 Noroeste 0 963.7 0.1 90
2019-12-03 00:00:00 8.4 3 Nordeste 10 Nordeste 0 963.5 0.4 88
2019-12-02 23:00:00 8.9 0 Calma 9 Nordeste 0 963.6 0.8 88
2019-12-02 22:00:00 9.8 3 Nordeste 9 Sudeste 0 963.6 1.6 83
2019-12-02 21:00:00 10.4 0 Calma 9 Nordeste 0 963.1 1.6 81
2019-12-02 20:00:00 10.1 0 Calma 17 Sudeste 0 962.8 1.8 84
2019-12-02 19:00:00 11 0 Calma 11 Sur 0 962 1.3 78
2019-12-02 18:00:00 11.1 2 Sur 9 Sur 0 961.5 0.9 82
2019-12-02 17:00:00 11.6 0 Calma 8 Sudoeste 0 961 0.3 82
2019-12-02 16:00:00 11.4 2 Sur 9 Sur 0.1 960.7 -0.5 82
2019-12-02 15:00:00 11.9 0 Calma 15 Sudeste 0.4 960.6 -1 77
2019-12-02 14:00:00 12.4 7 Sudeste 18 Sur 0 960.7 -0.9 68
2019-12-02 13:00:00 12.9 10 Sudeste 18 Sur 0 961.2 0.1 64
2019-12-02 12:00:00 12.3 9 Sudeste 21 Sudeste 0 961.6 1 63
2019-12-02 11:00:00 10.1 3 Nordeste 13 Nordeste 0.7 961.6 1.7 83
2019-12-02 10:00:00 8.9 3 Nordeste 11 Norte 0.6 961.1 1.2 89
2019-12-02 09:00:00 9 2 Sur 21 Sur 0 960.6 1 86
2019-12-02 08:00:00 9.3 5 Sudeste 14 Sudeste 0.1 959.9 -0.1 87
2019-12-02 07:00:00 7.8 2 Oeste 8 Este 0 959.9 -0.2 91
2019-12-02 06:00:00 8.1 0 Calma 10 Nordeste 0 959.6 -0.8 92
2019-12-02 05:00:00 8.4 3 Este 10 Nordeste 0 960 -0.9 92
2019-12-02 04:00:00 8.2 3 Nordeste 11 Nordeste 0 960.1 -1.2 92
2019-12-02 03:00:00 8.3 3 Nordeste 8 Nordeste 0.1 960.4 -1.1 92
2019-12-02 02:00:00 8.3 4 Nordeste 7 Noroeste 0.4 960.9 -0.8 93
2019-12-02 01:00:00 8.6 0 Calma 4 Norte 0.2 961.3 -0.7 92
2019-12-02 00:00:00 8.8 0 Calma 8 Nordeste 0 961.5 -0.7 90
2019-12-01 23:00:00 8 0 Calma 4 Sudeste 0 961.7 -0.7 92
2019-12-01 22:00:00 9.2 0 Calma 9 Nordeste 0 962 -0.4 90
2019-12-01 21:00:00 9.5 0 Calma 8 Nordeste 0 962.2 -0.3 88
2019-12-01 20:00:00 10.6 3 Oeste 11 Nordeste 0 962.4 0.3 86
2019-12-01 19:00:00 10.5 0 Calma 8 Noroeste 0 962.4 -0.3 88
2019-12-01 18:00:00 10.7 5 Oeste 19 Noroeste 0.2 962.5 -1.1 83
2019-12-01 17:00:00 13 2 Sudoeste 18 Oeste 0 962.1 -2.3 68
2019-12-01 16:00:00 13.5 7 Oeste 25 Sudoeste 0 962.7 -2.3 62
2019-12-01 15:00:00 13.8 8 Oeste 22 Oeste 0 963.6 -2.7 56
2019-12-01 14:00:00 13.8 7 Oeste 22 Oeste 0 964.4 -2.5 57
2019-12-01 13:00:00 14.4 5 Oeste 20 Noroeste 0 965 -1.9 54
2019-12-01 12:00:00 13.6 5 Oeste 21 Oeste 0 966.3 -0.2 59
2019-12-01 11:00:00 12.3 0 Calma 6 Oeste 0 966.9 0.1 82
2019-12-01 10:00:00 9.8 0 Calma 5 Nordeste 0 966.9 0 93
2019-12-01 09:00:00 9.6 2 Nordeste 5 Nordeste 0 966.5 -0.4 94
2019-12-01 08:00:00 9.6 0 Calma 6 Nordeste 0 966.8 -0.4 92
2019-12-01 07:00:00 10.2 0 Calma 8 Oeste 0 966.9 -1.1 89
2019-12-01 06:00:00 10.8 0 Calma 5 Oeste 0 966.9 -1.4 88
2019-12-01 05:00:00 11.3 0 Calma 14 Oeste 0 967.2 -1.4 86
2019-12-01 04:00:00 11.7 0 Calma 21 Noroeste 0.1 968 -1.4 86
2019-12-01 03:00:00 12.2 5 Oeste 19 Oeste 0.2 968.3 -1.7 90
2019-12-01 02:00:00 12.3 0 Calma 6 Oeste 0 968.6 -2.1 81
2019-12-01 01:00:00 12.1 0 Calma 2 Nordeste 0 969.4 -1.7 82
2019-12-01 00:00:00 11.8 0 Calma 2 Nordeste 0 970 -1.5 83
2019-11-30 23:00:00 12 0 Calma 8 Oeste 0 970.7 -0.7 83
2019-11-30 22:00:00 11.6 0 Calma 2 Sudoeste 0 971.1 -0.1 82
2019-11-30 21:00:00 12.1 0 Calma 6 Noroeste 0 971.5 0.9 78
2019-11-30 20:00:00 13.1 0 Calma 6 Norte 0 971.4 1.1 76
2019-11-30 19:00:00 13.5 0 Calma 13 Noroeste 0 971.2 0.9 74
2019-11-30 18:00:00 15 6 Noroeste 30 Noroeste 0 970.6 -0.2 68
2019-11-30 17:00:00 16.6 16 Noroeste 27 Noroeste 0 970.3 -1.2 63
2019-11-30 16:00:00 18.3 9 Noroeste 17 Noroeste 0 970.3 -2.1 56
2019-11-30 15:00:00 19.8 4 Oeste 15 Noroeste 0 970.8 -2.4 40
2019-11-30 14:00:00 18 4 Oeste 10 Oeste 0 971.5 -2.2 47
2019-11-30 13:00:00 16 4 Noroeste 10 Noroeste 0 972.4 -1.2 62
2019-11-30 12:00:00 11.8 0 Calma 4 Sudeste 0 973.2 -0.2 83
2019-11-30 11:00:00 8.9 0 Calma 6 Sur 0 973.7 0.5 94
2019-11-30 10:00:00 5.5 0 Calma 3 Sur 0 973.6 0.5 95
2019-11-30 09:00:00 4.6 0 Calma 0 Calma 0.1 973.4 0.4 95
2019-11-30 08:00:00 4.4 0 Calma 2 Este 0 973.2 0.4 95
2019-11-30 07:00:00 5.3 0 Calma 0 Calma 0 973.1 -0.4 94
2019-11-30 06:00:00 5.1 0 Calma 3 Sur 0 973 -0.3 94
2019-11-30 05:00:00 6.1 0 Calma 4 Noroeste 0 972.8 -0.5 94
2019-11-30 04:00:00 5.6 0 Calma 6 Noroeste 0 973.5 0.2 94
2019-11-30 03:00:00 7.3 0 Calma -- -- 0 973.3 0 91
2019-11-30 02:00:00 7.2 0 Calma -- -- 0 973.3 -0.2 90
2019-11-30 01:00:00 8.6 0 Calma -- -- 0 973.3 -0.2 89
2019-11-30 00:00:00 9.4 0 Calma 5 Nordeste 0 973.3 -0.4 88
2019-11-29 23:00:00 10 0 Calma 3 Oeste 0 973.5 -0.1 86
2019-11-29 22:00:00 10.9 0 Calma 3 Noroeste 0 973.5 0.1 82
2019-11-29 21:00:00 11.8 0 Calma 8 Noroeste 0 973.7 0.6 78
2019-11-29 20:00:00 13 6 Noroeste 10 Noroeste 0 973.6 0.7 72
2019-11-29 19:00:00 13.6 5 Noroeste 12 Noroeste 0 973.4 0.7 71
2019-11-29 18:00:00 15.4 2 Noroeste 15 Noroeste 0 973.1 0.4 62
2019-11-29 17:00:00 16.8 3 Noroeste 14 Noroeste 0 972.9 -0.4 57
2019-11-29 16:00:00 17.4 3 Norte 16 Oeste 0 972.7 -1.2 53
2019-11-29 15:00:00 17.2 2 Norte 15 Noroeste 0 972.7 -1.6 52
2019-11-29 14:00:00 17 4 Norte 18 Nordeste 0 973.3 -1.3 53
2019-11-29 13:00:00 15.4 2 Nordeste 9 Nordeste 0 973.9 -0.4 60
2019-11-29 12:00:00 13.2 0 Calma 4 Sur 0 974.3 0.6 70
2019-11-29 11:00:00 10.1 0 Calma 5 Sudeste 0 974.6 1.2 83
2019-11-29 10:00:00 7 0 Calma 4 Norte 0 974.3 1.4 92
2019-11-29 09:00:00 5.7 0 Calma 6 Oeste 0 973.7 1.1 93
2019-11-29 08:00:00 4.5 0 Calma 4 Oeste 0 973.4 1.2 94
2019-11-29 07:00:00 6.1 0 Calma 6 Nordeste 0 972.9 0.6 94
2019-11-29 06:00:00 5.3 0 Calma -- -- 0 972.6 0.5 93
2019-11-29 05:00:00 6.6 0 Calma -- -- 0 972.2 0.2 92
2019-11-29 04:00:00 7 0 Calma -- -- 0 972.3 0 89
2019-11-29 03:00:00 7.8 0 Calma 0 Calma 0 972.1 -0.1 89
2019-11-29 02:00:00 8.3 0 Calma -- -- 0 972 -0.3 89
2019-11-29 01:00:00 8.7 0 Calma -- -- 0 972.3 0.3 89
2019-11-29 00:00:00 9.1 0 Calma -- -- 0 972.2 0.4 87
2019-11-28 23:00:00 10.1 0 Calma -- -- 0 972.3 0.8 83
2019-11-28 22:00:00 11 0 Calma 7 Noroeste 0 972 1.1 80
2019-11-28 21:00:00 12.3 0 Calma 9 Nordeste 0 971.8 1.2 76
2019-11-28 20:00:00 12.7 2 Nordeste 11 Nordeste 0 971.5 1.2 72
2019-11-28 19:00:00 13.2 6 Nordeste 13 Nordeste 0 970.9 0.7 70
2019-11-28 18:00:00 14.2 2 Nordeste 12 Nordeste 0 970.6 0.2 65
2019-11-28 17:00:00 15.4 5 Nordeste 14 Nordeste 0 970.3 -0.6 59
2019-11-28 16:00:00 15.3 8 Nordeste 15 Nordeste 0 970.2 -1.5 59
2019-11-28 15:00:00 15.5 4 Nordeste 13 Nordeste 0 970.4 -1.8 59
2019-11-28 14:00:00 14.9 3 Norte 15 Nordeste 0 970.9 -1.6 59
2019-11-28 13:00:00 14.6 2 Norte 13 Noroeste 0 971.7 -0.5 59
2019-11-28 12:00:00 13.9 3 Nordeste 9 Nordeste 0 972.2 0.7 64
2019-11-28 11:00:00 12.1 2 Este 6 Este 0 972.5 1.8 83
2019-11-28 10:00:00 10.5 0 Calma 6 Nordeste 0 972.2 1.6 93
2019-11-28 09:00:00 9.6 0 Calma 6 Este 0 971.5 1.1 93
2019-11-28 08:00:00 9.5 0 Calma 6 Noroeste 0 970.7 0.7 90
2019-11-28 07:00:00 10.5 0 Calma 7 Noroeste 0 970.6 0.6 91
2019-11-28 06:00:00 10.2 0 Calma 6 Noroeste 0 970.4 0.7 93
2019-11-28 05:00:00 9.7 2 Nordeste 5 Nordeste 0 970 0.2 94
2019-11-28 04:00:00 9.3 0 Calma 6 Noroeste 0 970 0 92
2019-11-28 03:00:00 10 0 Calma 6 Noroeste 0 969.7 -0.3 89
2019-11-28 02:00:00 10.9 2 Noroeste 13 Noroeste 0 969.8 0.1 89
2019-11-28 01:00:00 11.4 3 Noroeste 13 Noroeste 0 970 0.5 89
2019-11-28 00:00:00 12.1 8 Noroeste 18 Noroeste 0 970 1 87
2019-11-27 23:00:00 12.6 3 Noroeste 8 Noroeste 0 969.7 0.9 83
2019-11-27 22:00:00 13.5 0 Calma 8 Noroeste 0 969.5 1.6 80
2019-11-27 21:00:00 13.5 0 Calma -- -- 0 969 1.3 80
2019-11-27 20:00:00 13.8 0 Calma 6 Nordeste 0 968.8 1.2 76
2019-11-27 19:00:00 13.8 0 Calma 7 Norte 0 967.9 0.6 75
2019-11-27 18:00:00 14.7 0 Calma 17 Noroeste 0 967.7 0 68
2019-11-27 17:00:00 15.7 8 Noroeste 19 Noroeste 0 967.6 -0.3 62
2019-11-27 16:00:00 15.9 8 Noroeste 19 Noroeste 0 967.3 -1.1 60
2019-11-27 15:00:00 15.8 9 Noroeste 23 Noroeste 0 967.7 -1.4 59
2019-11-27 14:00:00 15.9 9 Noroeste 21 Noroeste 0 967.9 -1.2 62
2019-11-27 06:00:00 13.1 0 Calma 13 Oeste 0 966.8 0.1 84
2019-11-27 05:00:00 13.2 0 Calma 8 Oeste 0 966.3 -0.4 89
2019-11-27 04:00:00 13.5 0 Calma 9 Oeste 0 966.6 -0.4 84
2019-11-27 03:00:00 13.5 0 Calma 8 Norte 0 966.7 -0.7 80
2019-11-27 02:00:00 12.9 4 Nordeste 7 Nordeste 0 966.7 -0.7 82
2019-11-27 01:00:00 13.1 5 Nordeste 9 Nordeste 0 967 -0.4 81
2019-11-27 00:00:00 13.2 0 Calma 5 Nordeste 0 967.4 -0.1 81
2019-11-26 23:00:00 12.6 0 Calma 11 Oeste 0 967.4 -0.1 81
2019-11-26 22:00:00 13.4 7 Oeste 18 Oeste 0 967.4 0 77
2019-11-26 21:00:00 14.2 2 Oeste 13 Noroeste 0 967.5 0.6 78
2019-11-26 20:00:00 13.8 0 Calma 10 Oeste 0 967.5 0.6 80
2019-11-26 19:00:00 14.9 0 Calma 12 Oeste 0 967.4 0.8 80
2019-11-26 18:00:00 15.7 8 Oeste 18 Noroeste 0 966.9 -0.1 77
2019-11-26 17:00:00 17 4 Noroeste 15 Oeste 0 966.9 -0.7 74
2019-11-26 16:00:00 17.4 0 Calma 8 Oeste 0 966.6 -1.8 70
2019-11-26 15:00:00 17 2 Noroeste 12 Oeste 0 967 -2.3 70
2019-11-26 14:00:00 17.5 0 Calma 8 Noroeste 0 967.6 -2.1 68
2019-11-26 13:00:00 16.1 0 Calma 8 Oeste 0 968.4 -1.3 71
2019-11-26 12:00:00 15.1 0 Calma 8 Este 0 969.3 -0.3 77
2019-11-26 11:00:00 14 4 Este 9 Este 0 969.7 0.5 86
2019-11-26 10:00:00 12.5 3 Nordeste 10 Nordeste 0 969.7 0.9 93
2019-11-26 09:00:00 11.8 7 Nordeste 13 Nordeste 0 969.6 0.9 94
2019-11-26 08:00:00 11.4 5 Nordeste 10 Nordeste 0 969.2 0.1 94
2019-11-26 07:00:00 12.1 3 Nordeste 7 Nordeste 0 968.8 -0.6 93
2019-11-26 06:00:00 11.6 2 Nordeste 4 Nordeste 0 968.7 -0.6 93
2019-11-26 05:00:00 12.7 0 Calma 6 Nordeste 0 969.1 -0.5 92
2019-11-26 04:00:00 12.3 0 Calma 6 Noroeste 0 969.4 -0.6 92
2019-11-26 03:00:00 13.2 0 Calma 15 Noroeste 0 969.3 -1.2 91
2019-11-26 02:00:00 13.7 0 Calma 13 Noroeste 0.1 969.6 -0.9 92
2019-11-26 01:00:00 14.1 0 Calma 8 Nordeste 0 970 -0.5 92
2019-11-26 00:00:00 14.2 0 Calma 6 Nordeste 0 970.5 0.2 93
2019-11-25 23:00:00 14.1 3 Nordeste 8 Norte 0 970.5 0.4 93
2019-11-25 22:00:00 14.2 2 Nordeste 6 Nordeste 0 970.5 0.7 93
2019-11-25 21:00:00 14.5 0 Calma 0 Calma 0.4 970.3 0.6 92
2019-11-25 20:00:00 14.7 0 Calma 16 Oeste 0.1 970.1 0.6 89
2019-11-25 19:00:00 14.8 0 Calma 6 Oeste 0 969.8 0.4 87
2019-11-25 18:00:00 15 0 Calma 12 Oeste 0 969.7 0.1 87
2019-11-25 17:00:00 15.4 5 Oeste 21 Oeste 0 969.5 -0.3 82
2019-11-25 16:00:00 15.7 9 Oeste 18 Noroeste 0 969.4 -0.7 80
2019-11-25 15:00:00 15.7 6 Oeste 17 Oeste 0 969.6 -1.3 78
2019-11-25 14:00:00 15.6 0 Calma 13 Oeste 0 969.8 -1.5 77
2019-11-25 13:00:00 15.2 0 Calma 9 Oeste 0 970.1 -0.9 81
2019-11-25 12:00:00 12.6 0 Calma 6 Este 0 970.9 0.2 89
2019-11-25 11:00:00 11.2 4 Nordeste 6 Nordeste 0 971.3 0.9 92
2019-11-25 10:00:00 10.3 3 Nordeste 9 Nordeste 0 971 0.6 94
2019-11-25 09:00:00 9.4 0 Calma 10 Nordeste 0.1 970.7 0.6 94
2019-11-25 08:00:00 9.7 5 Nordeste 10 Nordeste 0 970.4 0.2 92
2019-11-25 07:00:00 9.9 3 Nordeste 10 Nordeste 0 970.4 0.3 87
2019-11-25 06:00:00 9.6 5 Nordeste 11 Norte 0 970.1 -0.4 83
2019-11-25 05:00:00 9.2 4 Nordeste 11 Nordeste 0 970.2 -0.5 86
2019-11-25 04:00:00 8.3 2 Nordeste 6 Norte 0 970.1 -0.8 90
2019-11-25 03:00:00 8 4 Nordeste 10 Noroeste 0 970.5 -0.6 91
2019-11-25 02:00:00 8.1 0 Calma 7 Nordeste 0 970.7 -0.2 87
2019-11-25 01:00:00 8.8 0 Calma 7 Norte 0 970.9 -0.1 83
2019-11-25 00:00:00 8.3 0 Calma 8 Nordeste 0 971.1 0.4 81
2019-11-24 23:00:00 9.4 0 Calma 12 Nordeste 0 970.9 0.5 80
2019-11-24 22:00:00 9.5 0 Calma 7 Nordeste 0 971 1.1 77
2019-11-24 21:00:00 9.2 0 Calma 5 Nordeste 0 970.7 1.5 77
2019-11-24 20:00:00 9.4 0 Calma 6 Nordeste 0 970.4 1.4 75
2019-11-24 19:00:00 10 0 Calma 10 Noroeste 0 969.9 1 69
2019-11-24 18:00:00 11.5 4 Noroeste 17 Noroeste 0 969.2 0.4 62
2019-11-24 17:00:00 12.6 10 Noroeste 23 Noroeste 0 969 0 57
2019-11-24 16:00:00 12.9 12 Noroeste 27 Noroeste 0 968.9 -0.9 53
2019-11-24 15:00:00 12.6 12 Noroeste 22 Oeste 0 968.8 -1.5 55
2019-11-24 14:00:00 12.4 9 Noroeste 24 Noroeste 0 969 -1.3 58
2019-11-24 13:00:00 11.9 7 Noroeste 21 Noroeste 0 969.8 -0.3 59
2019-11-24 12:00:00 10.4 3 Nordeste 10 Este 0 970.3 0.4 74
2019-11-24 11:00:00 7.6 0 Calma 5 Este 0 970.3 1.1 86
2019-11-24 10:00:00 5.5 0 Calma 5 Este 0 970.1 2 93
2019-11-24 09:00:00 4.5 0 Calma -- -- 0 969.9 2.3 93
2019-11-24 08:00:00 4.1 0 Calma 10 Nordeste 0 969.2 1.8 93
2019-11-24 07:00:00 4 0 Calma 7 Nordeste 0 968.1 0.8 93
2019-11-24 06:00:00 4.4 0 Calma 4 Oeste 0 967.6 0.3 90
2019-11-24 05:00:00 5 0 Calma 6 Este 0 967.4 0.3 90
2019-11-24 04:00:00 6.1 0 Calma 4 Nordeste 0 967.3 -0.1 87
2019-11-24 03:00:00 6.2 0 Calma 4 Nordeste 0 967.3 0.1 86
2019-11-24 02:00:00 7.1 0 Calma 3 Sudoeste 0 967.1 0.2 82
2019-11-24 01:00:00 7.2 0 Calma 9 Sur 0 967.4 1 81
2019-11-24 00:00:00 7.6 0 Calma 5 Sudoeste 0 967.2 1.3 80
2019-11-23 23:00:00 7.4 0 Calma 10 Noroeste 0 966.9 1.7 82
2019-11-23 22:00:00 8.7 5 Noroeste 13 Noroeste 0 966.4 2.3 75
2019-11-23 21:00:00 9.2 3 Noroeste 13 Oeste 0 965.9 3.1 74
2019-11-23 20:00:00 10.1 7 Noroeste 18 Oeste 0 965.2 2.9 68
2019-11-23 19:00:00 10.4 3 Oeste 24 Oeste 0 964.1 2.4 64
2019-11-23 18:00:00 11.5 10 Oeste 28 Oeste 0 962.8 1.5 59
2019-11-23 17:00:00 12 15 Oeste 40 Oeste 0 962.3 1 57
2019-11-23 16:00:00 13.2 18 Oeste 42 Oeste 0 961.7 0.5 57
2019-11-23 15:00:00 12.6 17 Oeste 39 Oeste 0 961.3 -0.2 57
2019-11-23 14:00:00 12.4 17 Oeste 36 Noroeste 0 961.3 0.4 59
2019-11-23 13:00:00 12.5 15 Oeste 38 Oeste 0 961.2 1.3 59
2019-11-23 12:00:00 12.1 17 Oeste 38 Sudoeste 0 961.5 3 64
2019-11-23 11:00:00 11 13 Oeste 34 Oeste 0 960.9 3.3 72
2019-11-23 10:00:00 10.3 13 Oeste 31 Oeste 0 959.9 3.3 80
2019-11-23 09:00:00 10.1 11 Oeste 26 Oeste 0 958.5 2.6 81
2019-11-23 08:00:00 10.1 10 Oeste 28 Oeste 0.3 957.6 1.8 86
2019-11-23 07:00:00 10.2 13 Oeste 35 Noroeste 0.6 956.6 1.5 88
2019-11-23 06:00:00 10.5 16 Oeste 40 Oeste 0 955.9 0.7 81
2019-11-23 05:00:00 11.5 13 Oeste 50 Oeste 0.1 955.8 1.2 71
2019-11-23 04:00:00 12.2 21 Oeste 53 Oeste 0 955.1 0.2 69
2019-11-23 03:00:00 12.1 16 Oeste 39 Oeste 0 955.2 0.2 70
2019-11-23 02:00:00 12.3 15 Oeste 32 Oeste 0 954.6 -0.4 76
2019-11-23 01:00:00 12.5 13 Oeste 34 Oeste 0 954.9 0 74
2019-11-23 00:00:00 12.4 12 Oeste 27 Oeste 0 955 0.3 76
2019-11-22 23:00:00 12.5 9 Oeste 25 Oeste 0 955 1.9 77
2019-11-22 22:00:00 12.6 8 Oeste 27 Oeste 0 954.9 3.3 74
2019-11-22 21:00:00 13.2 9 Oeste 42 Noroeste 0 954.7 3.2 80
2019-11-22 20:00:00 14.1 22 Oeste 52 Oeste 2.5 953.1 1.9 86
2019-11-22 19:00:00 15.3 8 Sudoeste 38 Oeste 1.8 951.6 -0.6 89
2019-11-22 18:00:00 16.1 10 Oeste 35 Sur 0.1 951.5 -0.9 78
2019-11-22 17:00:00 15.8 10 Sudoeste 34 Sudoeste 0 951.2 -2.4 71
2019-11-22 16:00:00 15.3 8 Sudoeste 27 Sudoeste 0.1 952.2 -3.1 83
2019-11-22 15:00:00 14.2 3 Sur 31 Sur 0.7 952.4 -4.5 90
2019-11-22 14:00:00 14 9 Sur 33 Sur 0 953.6 -3.4 87
2019-11-22 13:00:00 13.9 8 Sur 29 Sur 1.5 955.3 -2.1 89
2019-11-22 12:00:00 13.4 13 Sur 35 Sudeste 0.1 956.9 -0.2 90
2019-11-22 11:00:00 13.8 9 Sur 25 Sur 0.1 957 -1 89
2019-11-22 10:00:00 12.6 3 Sur 11 Sur 0.7 957.4 -0.4 94
2019-11-22 09:00:00 11.9 3 Nordeste 8 Norte 1.6 957.1 -1 94
2019-11-22 08:00:00 11.7 0 Calma 12 Noroeste 4.6 958 -0.6 94
2019-11-22 07:00:00 11.6 9 Noroeste 14 Noroeste 1.3 957.8 -1.5 93
2019-11-22 06:00:00 11.8 0 Calma 8 Noroeste 2.2 958.1 -1.3 92
2019-11-22 05:00:00 12 0 Calma -- -- 0 958.6 -1.2 89
2019-11-22 04:00:00 11.8 0 Calma -- -- 0 959.3 -1.1 89
2019-11-22 03:00:00 11.8 0 Calma 0 Calma 0.1 959.4 -1.4 89
2019-11-22 02:00:00 11.5 0 Calma 4 Noroeste 0 959.8 -1.1 89
2019-11-22 01:00:00 11.2 0 Calma 4 Noroeste 0 960.4 -0.7 88
2019-11-22 00:00:00 11.6 0 Calma 8 Oeste 0 960.8 -0.2 87
2019-11-21 23:00:00 12 2 Sudoeste 9 Sudoeste 0 960.9 -0.1 87
2019-11-21 22:00:00 11.8 3 Oeste 10 Sudoeste 0 961.1 0.2 88
2019-11-21 21:00:00 11.8 0 Calma -- -- 0 961 0.5 87
2019-11-21 20:00:00 12.4 0 Calma 8 Sur 0 961 0.7 84
2019-11-21 19:00:00 12.2 3 Nordeste 10 Sudoeste 0 960.9 0.8 86
2019-11-21 18:00:00 12.6 0 Calma 6 Sur 0 960.5 0.2 83
2019-11-21 17:00:00 12.6 3 Sur 19 Sur 0.1 960.3 -0.7 83
2019-11-21 16:00:00 13.9 5 Sur 15 Sur 0 960.1 -1.5 71
2019-11-21 15:00:00 14.1 4 Sur 17 Sudeste 0 960.3 -2.4 71
2019-11-21 14:00:00 13.4 7 Sur 17 Sur 0 961 -2 74
2019-11-21 13:00:00 13.6 5 Sudeste 18 Sudeste 0 961.6 -1.4 75
2019-11-21 12:00:00 11.8 0 Calma -- -- 0 962.7 0 89
2019-11-21 11:00:00 10.6 0 Calma -- -- -- 963 0.6 93
2019-11-21 10:00:00 9.5 0 Calma 8 Oeste 0.9 963 0.9 94
2019-11-21 09:00:00 9 0 Calma 7 Oeste 0 962.7 0.5 94
2019-11-21 08:00:00 8 0 Calma 5 Oeste 0 962.4 0.2 94
2019-11-21 07:00:00 8.2 0 Calma 3 Nordeste 0 962.1 -0.6 94
2019-11-21 06:00:00 8.4 2 Nordeste 5 Nordeste 0 962.2 -0.7 94
2019-11-21 05:00:00 8.6 0 Calma 4 Oeste 0.1 962.2 -0.8 93
2019-11-21 04:00:00 8.8 0 Calma 5 Oeste 0 962.7 -0.5 93
2019-11-21 03:00:00 8.9 0 Calma -- -- 0.3 962.9 -0.5 93
2019-11-21 02:00:00 9 0 Calma 4 Oeste 0.5 963 -0.2 91
2019-11-21 01:00:00 9 0 Calma 5 Oeste 0.2 963.2 0.2 89
2019-11-21 00:00:00 9.1 0 Calma 8 Oeste 0 963.4 0.6 86
2019-11-20 23:00:00 9 0 Calma 6 Oeste 0 963.2 0.9 86
2019-11-20 22:00:00 8.7 0 Calma 6 Oeste 0 963 1.1 85
2019-11-20 21:00:00 9.3 0 Calma 14 Sur 0 962.8 1.1 82
2019-11-20 20:00:00 9.8 2 Sur 15 Sur 0 962.3 0.4 83
2019-11-20 19:00:00 10.1 4 Sur 23 Sur 0 961.9 0.3 82
2019-11-20 18:00:00 10.4 5 Sur 29 Sur 0 961.7 -0.5 82
2019-11-20 17:00:00 10.6 12 Sur 25 Sur 0.5 961.9 -0.7 83
2019-11-20 16:00:00 10.9 6 Sur 19 Sudeste 0 961.6 -1.7 76
2019-11-20 15:00:00 11.1 2 Sur 18 Sur 0.2 962.2 -1.8 76
2019-11-20 14:00:00 11 0 Calma 6 Sur 0 962.6 -2 72
2019-11-20 13:00:00 9.8 0 Calma 8 Nordeste 0 963.3 -1.4 78
2019-11-20 12:00:00 7.3 5 Nordeste 9 Nordeste 0.4 964 -0.6 91
2019-11-20 11:00:00 6.9 0 Calma 5 Este 0.1 964.6 0.2 92
2019-11-20 10:00:00 4.6 0 Calma 4 Sudeste 0 964.7 0.6 92
2019-11-20 09:00:00 3.6 0 Calma 5 Oeste 0 964.6 0.2 94
2019-11-20 08:00:00 2.2 0 Calma 4 Oeste 0 964.4 -0.2 93
2019-11-20 07:00:00 2.6 0 Calma 3 Oeste 0 964.1 -1.1 93
2019-11-20 06:00:00 3.9 0 Calma 5 Noroeste 0 964.4 -1.1 92
2019-11-20 05:00:00 4.2 0 Calma 3 Nordeste 0 964.6 -1.2 90
2019-11-20 04:00:00 5.2 0 Calma 7 Oeste 0 965.2 -1 88
2019-11-20 03:00:00 6.2 0 Calma 0 Calma 0 965.5 -1.2 82
2019-11-20 02:00:00 7 0 Calma 4 Noroeste 0 965.8 -1.4 81
2019-11-20 01:00:00 7.7 0 Calma -- -- 0 966.2 -1.1 78
2019-11-20 00:00:00 8.3 0 Calma 2 Nordeste 0 966.7 -0.5 75
2019-11-19 23:00:00 8.5 0 Calma -- -- 0 967.2 -0.1 74
2019-11-19 22:00:00 9 0 Calma 5 Nordeste 0 967.3 0.2 71
2019-11-19 21:00:00 9.7 0 Calma 5 Nordeste 0 967.2 0.3 66
2019-11-19 20:00:00 10 0 Calma 8 Nordeste 0 967.3 0.3 65
2019-11-19 19:00:00 10.3 0 Calma 8 Norte 0 967.1 -0.2 62
2019-11-19 18:00:00 11.6 0 Calma 11 Nordeste 0 966.9 -0.7 53
2019-11-19 17:00:00 12.7 5 Nordeste 14 Nordeste 0 967 -1.3 47
2019-11-19 16:00:00 12.7 2 Nordeste 14 Norte 0 967.3 -1.6 47
2019-11-19 15:00:00 13.2 3 Norte 15 Nordeste 0 967.6 -2.5 46
2019-11-19 14:00:00 12.6 0 Calma 13 Noroeste 0 968.3 -1.9 46
2019-11-19 13:00:00 11.7 5 Este 11 Este 0 968.9 -1.6 57
2019-11-19 12:00:00 9.5 0 Calma 2 Sur 0 970.1 -0.2 73
2019-11-19 11:00:00 7.6 0 Calma 7 Este 0 970.2 0.4 79
2019-11-19 10:00:00 4.6 4 Este 10 Este 0 970.5 0.8 90
2019-11-19 09:00:00 1.5 3 Nordeste 6 Nordeste 0 970.3 1.1 95
2019-11-19 08:00:00 1.4 0 Calma 5 Nordeste 0 969.8 0.5 94
2019-11-19 07:00:00 2.2 2 Oeste 5 Noroeste 0 969.7 0.5 94
2019-11-19 06:00:00 2.3 0 Calma 5 Nordeste 0 969.2 0 94
2019-11-19 05:00:00 2.1 0 Calma 6 Noroeste 0 969.3 -0.4 93
2019-11-19 04:00:00 3.3 0 Calma 6 Noroeste 0 969.2 -0.7 93
2019-11-19 03:00:00 3.3 2 Nordeste 8 Nordeste 0 969.2 -0.7 93
2019-11-19 02:00:00 3.5 0 Calma 4 Nordeste 0 969.7 -0.2 92
2019-11-19 01:00:00 4.7 0 Calma 5 Oeste 0 969.9 0.4 89
2019-11-19 00:00:00 5 0 Calma -- -- 0 969.9 0.7 88
2019-11-18 23:00:00 5 0 Calma 10 Noroeste 0 969.9 1.1 86
2019-11-18 22:00:00 6.7 6 Noroeste 9 Noroeste 0 969.5 1.2 83
2019-11-18 21:00:00 7.2 2 Este 11 Noroeste 0 969.2 1.5 80
2019-11-18 20:00:00 8.8 0 Calma 10 Norte 0 968.8 1.4 76
2019-11-18 19:00:00 9.1 2 Noroeste 8 Noroeste 0 968.3 1.2 71
2019-11-18 18:00:00 10.4 4 Noroeste 16 Noroeste 0 967.7 0.6 64
2019-11-18 17:00:00 11.7 8 Noroeste 23 Noroeste 0 967.4 0.7 59
2019-11-18 16:00:00 11.9 5 Noroeste 21 Noroeste 0 967.1 0.5 58
2019-11-18 15:00:00 11.8 5 Noroeste 25 Nordeste 0 967.1 0.1 58
2019-11-18 14:00:00 10.9 6 Nordeste 21 Nordeste 0 966.7 -0.2 60
2019-11-18 13:00:00 10.9 7 Nordeste 19 Noroeste 0 966.6 0.7 62
2019-11-18 12:00:00 9.4 10 Noroeste 27 Oeste 0 967 1.6 71
2019-11-18 11:00:00 8.7 12 Noroeste 31 Noroeste 0 966.9 2.2 75
2019-11-18 10:00:00 8.1 16 Noroeste 27 Oeste 0 965.9 1.9 79
2019-11-18 09:00:00 7.1 14 Noroeste 30 Oeste 0 965.4 2.4 84
2019-11-18 08:00:00 7.5 14 Noroeste 29 Noroeste 0 964.7 2.2 86
2019-11-18 07:00:00 8.7 15 Noroeste 32 Oeste 0 964 1.8 86
2019-11-18 06:00:00 9.9 13 Oeste 29 Noroeste 0 963 0.5 87
2019-11-18 05:00:00 11.4 15 Noroeste 38 Oeste 0.7 962.5 -1.4 89
2019-11-18 04:00:00 12.5 9 Oeste 36 Oeste 0.1 962.2 -2.2 87
2019-11-18 03:00:00 11.4 5 Sudoeste 24 Oeste 0 962.5 -2.6 88
2019-11-18 02:00:00 11.6 8 Oeste 25 Oeste 0.6 963.9 -1.9 90
2019-11-18 01:00:00 12.3 8 Oeste 32 Sudoeste 0 964.4 -1.9 83
2019-11-18 00:00:00 12.8 12 Oeste 33 Oeste 0 965.1 -1.4 78
2019-11-17 23:00:00 12.8 11 Oeste 30 Oeste 0 965.8 -1.3 83
2019-11-17 22:00:00 12.4 9 Oeste 22 Oeste 0.3 966.3 -1.1 86
2019-11-17 21:00:00 12.4 2 Sudoeste 11 Sudoeste 0 966.5 -1.3 77
2019-11-17 20:00:00 12.3 3 Oeste 17 Sudoeste 0 967.1 -0.9 77
2019-11-17 19:00:00 12 6 Oeste 18 Sudoeste 0 967.4 -1.3 79
2019-11-17 18:00:00 12.3 5 Sudoeste 21 Oeste 0 967.8 -1.2 78
2019-11-17 17:00:00 13.1 5 Oeste 23 Oeste 0 968 -1.6 76
2019-11-17 16:00:00 9 8 Nordeste 11 Nordeste 0 968.7 -1.7 88
2019-11-17 15:00:00 7.9 6 Nordeste 10 Nordeste 0 969 -2.4 93
2019-11-17 14:00:00 7 6 Nordeste 13 Nordeste 0.1 969.6 -2.3 93
2019-11-17 13:00:00 7 5 Nordeste 12 Este 0 970.4 -1.1 90
2019-11-17 12:00:00 7.6 5 Nordeste 11 Nordeste 0 971.4 0.1 77
2019-11-17 11:00:00 5.9 3 Nordeste 7 Nordeste 0 971.9 0.9 78
2019-11-17 10:00:00 3.7 2 Este 8 Este 0 971.5 0.8 84
2019-11-17 09:00:00 0.6 0 Calma 2 Norte 0 971.3 0.8 90
2019-11-17 08:00:00 0 2 Nordeste 7 Nordeste 0 971 0.6 91
2019-11-17 07:00:00 -0.1 0 Calma 0 Calma 0 970.7 0.1 90
2019-11-17 06:00:00 0.3 2 Nordeste 6 Nordeste 0 970.5 0 91
2019-11-17 05:00:00 -0.5 0 Calma 3 Nordeste 0 970.4 -0.2 90
2019-11-17 04:00:00 0 0 Calma -- -- 0 970.6 -0.3 88
2019-11-17 03:00:00 0 0 Calma 4 Nordeste 0 970.5 -0.4 88
2019-11-17 02:00:00 0.4 0 Calma 4 Nordeste 0 970.6 -0.4 85
2019-11-17 01:00:00 1.4 0 Calma 8 Nordeste 0 970.9 0.2 81
2019-11-17 00:00:00 2.6 0 Calma 6 Nordeste 0 970.9 0.5 80
2019-11-16 23:00:00 2.9 0 Calma 5 Nordeste 0 971 0.9 76
2019-11-16 22:00:00 4.5 5 Nordeste 9 Nordeste 0 970.7 1.3 69
2019-11-16 21:00:00 5.2 0 Calma -- -- 0 970.4 1.5 65
2019-11-16 20:00:00 6.5 0 Calma 5 Sudoeste 0 970.1 1.6 58
2019-11-16 19:00:00 7.8 2 Noroeste 11 Noroeste 0 969.4 1.5 53
2019-11-16 18:00:00 9.4 7 Noroeste 22 Noroeste 0 968.9 1.4 46
2019-11-16 17:00:00 10.7 10 Noroeste 22 Oeste 0 968.5 0.7 43
2019-11-16 16:00:00 10.9 9 Noroeste 18 Noroeste 0 967.9 0 45
2019-11-16 15:00:00 10.4 5 Noroeste 17 Oeste 0 967.5 -0.9 47
2019-11-16 14:00:00 9.6 6 Noroeste 21 Noroeste 0 967.8 -0.1 52
2019-11-16 13:00:00 8.7 6 Noroeste 18 Noroeste 0 967.9 0.6 56
2019-11-16 12:00:00 7.2 5 Noroeste 13 Noroeste 0 968.4 2 61
2019-11-16 11:00:00 5.5 0 Calma 6 Este 0 967.9 2.5 74
2019-11-16 10:00:00 2.3 0 Calma 6 Este 0 967.3 3.1 88
2019-11-16 09:00:00 0.3 0 Calma 9 Nordeste 0 966.4 2.9 94
2019-11-16 08:00:00 -1 0 Calma -- -- 0 965.4 2.3 93
2019-11-16 07:00:00 -0.4 0 Calma 5 Norte 0 964.2 1.7 93
2019-11-16 06:00:00 -0.3 0 Calma -- -- 0 963.5 1.4 93
2019-11-16 05:00:00 0.8 0 Calma 5 Norte 0 963.1 1 92
2019-11-16 04:00:00 0.6 0 Calma 3 Nordeste 0 962.5 0.7 90
2019-11-16 03:00:00 1.7 0 Calma 4 Oeste 0 962.1 0.4 89
2019-11-16 02:00:00 1.7 0 Calma 4 Nordeste 0 962.1 0.5 88
2019-11-16 01:00:00 3 0 Calma 6 Nordeste 0 961.8 0.6 87
2019-11-16 00:00:00 3.6 5 Nordeste 9 Nordeste 0 961.7 1.1 83
2019-11-15 23:00:00 3.8 0 Calma 10 Este 0 961.6 1.3 80
2019-11-15 22:00:00 4.3 0 Calma 5 Este 0 961.2 0.9 74
2019-11-15 21:00:00 5.5 0 Calma 8 Noroeste 0 960.6 0.6 70
2019-11-15 20:00:00 6 0 Calma 6 Noroeste 0 960.3 0.6 69
2019-11-15 19:00:00 7.2 0 Calma 10 Noroeste 0 960.3 1 65
2019-11-15 18:00:00 7.8 0 Calma 21 Noroeste 0 960 0.7 62
2019-11-15 17:00:00 7.9 10 Noroeste 30 Noroeste 0 959.7 0.3 58
2019-11-15 16:00:00 8.6 13 Noroeste 27 Noroeste 0 959.3 -1 52
2019-11-15 15:00:00 9.4 11 Oeste 28 Sudoeste 0 959.3 -1.8 47
2019-11-15 14:00:00 9.5 10 Oeste 33 Noroeste 0 959.4 -1.9 49
2019-11-15 13:00:00 8.8 12 Noroeste 28 Noroeste 0 960.3 -0.9 53
2019-11-15 12:00:00 8.4 12 Oeste 29 Oeste 0 961.1 0.1 62
2019-11-15 11:00:00 7.6 12 Oeste 29 Oeste 0 961.3 0.7 69
2019-11-15 10:00:00 7.3 7 Oeste 20 Oeste 0 961.2 0.9 75
2019-11-15 09:00:00 5.6 0 Calma -- -- -- 961 1.1 82
2019-11-15 08:00:00 4.6 0 Calma 12 Oeste 0 960.6 0.3 82
2019-11-15 07:00:00 5.4 7 Oeste 22 Noroeste 0 960.3 -0.4 79
2019-11-15 06:00:00 5.6 9 Oeste 22 Oeste 0 959.9 -0.9 76
2019-11-15 05:00:00 5.7 4 Oeste 10 Sudoeste 0 960.3 -0.5 78
2019-11-15 04:00:00 6.6 0 Calma 18 Oeste 0 960.7 -0.5 77
2019-11-15 03:00:00 7.1 5 Oeste 19 Oeste 0 960.8 -0.7 75
2019-11-15 02:00:00 7.1 0 Calma 19 Oeste 0 960.8 -0.5 77
2019-11-15 01:00:00 6.6 0 Calma 12 Oeste 0 961.2 -0.5 81
2019-11-15 00:00:00 7.1 0 Calma 11 Oeste 0 961.5 0 80
2019-11-14 23:00:00 7.5 0 Calma 12 Sudoeste 0 961.3 -0.2 76
2019-11-14 22:00:00 8 0 Calma 12 Oeste 0 961.7 0.5 75
2019-11-14 21:00:00 8.8 3 Sudoeste 14 Oeste 0 961.5 0.7 72
2019-11-14 20:00:00 7.8 0 Calma 8 Sudoeste 0 961.5 1.6 75
2019-11-14 19:00:00 8.4 0 Calma 22 Oeste 0 961.2 1.2 74
2019-11-14 18:00:00 9.6 8 Oeste 28 Oeste 0 960.8 0.1 71
2019-11-14 17:00:00 10.3 9 Oeste 31 Oeste 0 959.9 -0.4 73
2019-11-14 16:00:00 10 13 Oeste 37 Oeste 0 960 -1.1 77
2019-11-14 15:00:00 9.3 15 Oeste 51 Noroeste 0.7 960.7 -1.3 83
2019-11-14 14:00:00 11 14 Oeste 38 Noroeste 0.2 960.3 -2.2 86
2019-11-14 13:00:00 10.7 14 Oeste 36 Oeste 0.7 961.1 -2.3 88
2019-11-14 12:00:00 11.5 8 Oeste 42 Oeste 0 962 -2 77
2019-11-14 11:00:00 12 14 Oeste 33 Oeste 0 962.5 -1.5 70
2019-11-14 10:00:00 10.7 9 Oeste 26 Oeste 0 963.4 -1.1 77
2019-11-14 09:00:00 9.8 5 Oeste 14 Noroeste 0 964 0.2 78
2019-11-14 08:00:00 9.2 5 Oeste 23 Oeste 0 964 0 81
2019-11-14 07:00:00 9.6 6 Oeste 26 Oeste 0 964.5 0 80
2019-11-14 06:00:00 10.3 13 Oeste 31 Oeste 0 963.8 -1.8 78
2019-11-14 05:00:00 11.2 0 Calma -- -- 0 964 -2.4 88
2019-11-14 04:00:00 11.2 0 Calma 13 Oeste 0 964.5 -2.3 86
2019-11-14 03:00:00 10.1 0 Calma 6 Oeste 0 965.6 -1.4 90
2019-11-14 02:00:00 10.7 0 Calma 0 Calma 0 966.4 -1.7 88
2019-11-14 01:00:00 11.7 0 Calma 10 Oeste 0 966.8 -0.6 86
2019-11-14 00:00:00 12.3 0 Calma 9 Oeste 0 967 -0.1 83
2019-11-13 23:00:00 13.4 3 Oeste 14 Noroeste 0 968.1 0.7 80
2019-11-13 22:00:00 13.3 3 Sudoeste 13 Sudoeste 0 967.4 0.2 82
2019-11-13 21:00:00 12.7 4 Oeste 16 Oeste 0 967.1 0.2 84
2019-11-13 20:00:00 13 2 Sudoeste 11 Oeste 0 967.4 0.8 83
2019-11-13 19:00:00 14.2 5 Oeste 14 Oeste 0 967.2 0.3 80
2019-11-13 18:00:00 15 2 Noroeste 22 Oeste 0 966.9 0 74
2019-11-13 17:00:00 15.9 10 Oeste 31 Noroeste 0 966.6 -0.2 72
2019-11-13 16:00:00 15.6 10 Oeste 30 Oeste 0 966.9 -0.7 75
2019-11-13 15:00:00 15.3 12 Oeste 44 Oeste 0 966.9 -0.8 80
2019-11-13 14:00:00 14.8 15 Oeste 32 Oeste 0 966.8 -0.6 81
2019-11-13 13:00:00 14 12 Oeste 36 Oeste 0 967.6 0.3 86
2019-11-13 12:00:00 14.1 13 Oeste 34 Oeste 0 967.7 1.2 80
2019-11-13 11:00:00 13 9 Oeste 23 Oeste 0.5 967.4 1.6 89
2019-11-13 10:00:00 12.7 9 Oeste 32 Oeste 0 967.3 1.1 81
2019-11-13 09:00:00 12.5 11 Oeste 33 Oeste 0 966.5 0.4 81
2019-11-13 08:00:00 12.2 14 Oeste 33 Oeste 0 965.8 -0.5 79
2019-11-13 07:00:00 11.9 10 Oeste 28 Oeste 0 966.2 -0.6 82
2019-11-13 06:00:00 11.8 7 Oeste -- -- -- 966.1 -0.7 80
2019-11-13 05:00:00 11.8 4 Oeste 14 Oeste 0 966.3 -1.3 76
2019-11-13 04:00:00 11.2 4 Oeste 11 Oeste 0 966.8 -1 74
2019-11-13 03:00:00 9.2 0 Calma -- -- 0 966.8 -1.2 72
2019-11-13 02:00:00 8.2 0 Calma 0 Calma 0 967.6 -0.7 74
2019-11-13 01:00:00 8.5 0 Calma 4 Sudeste 0 967.8 0.1 72
2019-11-13 00:00:00 8.7 0 Calma -- -- 0 968 0.3 70
2019-11-12 23:00:00 9 0 Calma 5 Oeste 0 968.3 0.7 65
2019-11-12 22:00:00 9.6 0 Calma 5 Noroeste 0 967.7 0.7 62
2019-11-12 21:00:00 9.9 0 Calma 7 Noroeste 0 967.7 0.8 65
2019-11-12 20:00:00 11.1 0 Calma 8 Nordeste 0 967.6 0.6 64
2019-11-12 19:00:00 12.2 2 Nordeste 8 Nordeste 0 967 0.2 60
2019-11-12 18:00:00 13.2 0 Calma 19 Noroeste 0 966.9 -0.6 58
2019-11-12 17:00:00 13.7 8 Noroeste 24 Noroeste 0 967 -1.2 58
2019-11-12 16:00:00 13.9 8 Noroeste 22 Noroeste 0 966.8 -1.6 62
2019-11-12 15:00:00 13.4 11 Noroeste 23 Noroeste 0 967.5 -1.1 69
2019-11-12 14:00:00 12.4 10 Noroeste 20 Oeste 0 968.2 -0.5 74
2019-11-12 13:00:00 13 11 Noroeste 24 Noroeste 0 968.4 -0.3 70
2019-11-12 12:00:00 12.7 9 Noroeste 19 Noroeste 0 968.6 0.6 69
2019-11-12 11:00:00 12 0 Calma 10 Noroeste 0 968.7 1.2 82
2019-11-12 10:00:00 10.5 3 Noroeste 8 Noroeste 0 968.7 1.3 93
2019-11-12 09:00:00 9.9 0 Calma 6 Noroeste 0 968 0.9 95
2019-11-12 08:00:00 9.7 0 Calma 6 Este 0 967.5 0.2 94
2019-11-12 07:00:00 10 0 Calma 9 Nordeste 0 967.4 -0.2 94
2019-11-12 06:00:00 10.1 4 Nordeste 7 Norte 0 967.1 -0.5 93
2019-11-12 05:00:00 11.2 0 Calma 10 Norte 0 967.3 -0.6 91
2019-11-12 04:00:00 11.3 4 Noroeste 12 Noroeste 0 967.6 -0.6 90
2019-11-12 03:00:00 11.2 0 Calma 7 Noroeste 0 967.6 -0.9 90
2019-11-12 02:00:00 10.9 0 Calma 9 Noroeste 0 967.9 -1.1 89
2019-11-12 01:00:00 11.1 0 Calma 7 Norte 0 968.2 -0.6 88
2019-11-12 00:00:00 11.6 0 Calma 8 Nordeste 0 968.5 -0.2 88